This is the latest recevied weather packets stored in our database for station/object BV3BA-13. If no packets are shown the sender has not sent any weather packets the latest 10 day(s).
| Time | Temp. | Humidity | Pressure | Rain* | Wind** | Luminosity | Snow |
|---|---|---|---|---|---|---|---|
| 1777531624 | 18.33° C | 95% | 1011.9 hPa | 3.05 mm | - | - | - |
| 1777531023 | 18.33° C | 95% | 1011.9 hPa | 3.05 mm | - | - | - |
| 1777530423 | 18.33° C | 95% | 1012 hPa | 3.05 mm | - | - | - |
| 1777529823 | 18.33° C | 95% | 1012.1 hPa | 2.54 mm | - | - | - |
| 1777529224 | 18.33° C | 94% | 1012.2 hPa | 2.54 mm | - | - | - |
| 1777528624 | 18.33° C | 94% | 1012.1 hPa | 2.54 mm | - | - | - |
| 1777528024 | 18.33° C | 93% | 1012.2 hPa | 2.54 mm | - | - | - |
| 1777527423 | 18.33° C | 93% | 1012.3 hPa | 3.05 mm | - | - | - |
| 1777526824 | 18.89° C | 93% | 1012.2 hPa | 3.05 mm | - | - | - |
| 1777526223 | 18.33° C | 94% | 1012.3 hPa | 3.56 mm | - | - | - |
| 1777525624 | 18.89° C | 94% | 1012.8 hPa | 3.05 mm | - | - | - |
| 1777525024 | 18.89° C | 94% | 1012.8 hPa | 2.03 mm | - | - | - |
| 1777524423 | 18.89° C | 93% | 1012.5 hPa | 1.02 mm | - | - | - |
| 1777523824 | 18.89° C | 94% | 1012.3 hPa | 0.51 mm | - | - | - |
| 1777523224 | 19.44° C | 93% | 1012.4 hPa | 0.51 mm | - | - | - |
| 1777522623 | 18.89° C | 93% | 1012.5 hPa | 0.51 mm | - | - | - |
| 1777522024 | 19.44° C | 94% | 1012.5 hPa | 0.51 mm | - | - | - |
| 1777521423 | 19.44° C | 95% | 1012.5 hPa | 0.51 mm | - | - | - |
| 1777520823 | 19.44° C | 93% | 1012.9 hPa | 1.02 mm | - | - | - |
| 1777520224 | 19.44° C | 93% | 1013 hPa | 1.02 mm | - | - | - |
| 1777519624 | 19.44° C | 93% | 1012.7 hPa | 1.52 mm | - | - | - |
| 1777519023 | 19.44° C | 94% | 1012.7 hPa | 1.02 mm | - | - | - |
| 1777518423 | 19.44° C | 93% | 1012.7 hPa | 1.02 mm | - | - | - |
| 1777517823 | 18.89° C | 93% | 1012.8 hPa | 1.02 mm | - | - | - |
| 1777517224 | 18.89° C | 93% | 1012.7 hPa | 1.02 mm | - | - | - |
* Rain latest hour (hover to see other rain measurements)
** Current wind speed in m/s (hover to see current wind gust speed)